Luverne, MN

4:52 PM CDT on April 29, 2017 (GMT -0500)
Luverne

Weather History for KLYV - March, 2013

Change the Weather History Date:

Saturday, March 9, 2013

  Actual Average (KPQN) Record (KPQN)
Temperature  
Mean Temperature 36 °F -  
Max Temperature 39 °F 30 °F 57 °F (2015)
Min Temperature 32 °F 15 °F -7 °F (2003)
Degree Days  
Heating Degree Days 30    
Moisture  
Dew Point 33 °F    
Average Humidity 93    
Maximum Humidity 100    
Minimum Humidity 87    
Precipitation  
Precipitation 0.41 in - - ()
Sea Level Pressure  
Sea Level Pressure 29.75 in    
Wind  
Wind Speed 9 mph (East)    
Max Wind Speed 18 mph    
Max Gust Speed 29 mph    
Visibility 4 miles    
Events Rain , Snow    
Averages and records for this station are not official NWS values.
T = Trace of Precipitation, MM = Missing Value Source: NWS Daily Summary

Daily Weather History Graph

Daily Weather History Graph

Search for Another Location

Airport or City:

Trip Planner

Search our weather history database for the weather conditions in past years. The results will help you decide how hot, cold, wet, or windy it might be!

Date:

Astronomy

Mar. 09, 2013 Rise Set
Actual Time 6:47 AM CST 6:24 PM CST
Civil Twilight 6:18 AM CST 6:52 PM CST
Nautical Twilight 5:45 AM CST 7:25 PM CST
Astronomical Twilight 5:11 AM CST 7:59 PM CST
Moon 5:15 AM CST (3/9) 4:24 PM CST (3/9)
Length of Visible Light 12h 34m
Length of Day
11h 36m
Waning Crescent, 5% of the Moon is Illuminated
Mar 9
Waning Crescent
Mar 11
New
Mar 19
First Quarter
Mar 27
Full
Apr 2
Last Quarter

Hourly Weather History & Observations

Time (CST) Temp. Windchill Dew Point Humidity Pressure Visibility Wind Dir Wind Speed Gust Speed Precip Events Conditions
12:17 AM 35.6 °F 28.0 °F 32.0 °F 87% 29.92 in 2.5 mi SE 10.4 mph - 0.01 in Rain Rain
12:36 AM 35.6 °F 28.0 °F 33.8 °F 93% 29.92 in 3.0 mi SE 10.4 mph - 0.01 in   Drizzle
12:57 AM 35.6 °F 28.6 °F 32.0 °F 87% 29.91 in 3.0 mi SE 9.2 mph - N/A   Drizzle
1:17 AM 33.8 °F 25.8 °F 32.0 °F 93% 29.90 in 3.0 mi SE 10.4 mph - N/A   Drizzle
1:36 AM 33.8 °F 25.8 °F 32.0 °F 93% 29.89 in 3.0 mi SE 10.4 mph - N/A   Light Drizzle
1:57 AM 33.8 °F 27.0 °F 32.0 °F 93% 29.88 in 3.0 mi SE 8.1 mph - N/A   Overcast
2:17 AM 33.8 °F 26.4 °F 32.0 °F 93% 29.87 in 3.0 mi SE 9.2 mph - N/A   Overcast
2:37 AM 33.8 °F 27.0 °F 32.0 °F 93% 29.85 in 3.0 mi SE 8.1 mph - N/A   Overcast
2:57 AM 33.8 °F 27.0 °F 32.0 °F 93% 29.84 in 3.0 mi SE 8.1 mph - N/A   Overcast
3:17 AM 33.8 °F 25.3 °F 32.0 °F 93% 29.83 in 3.0 mi SE 11.5 mph - N/A   Overcast
3:37 AM 33.8 °F 27.0 °F 32.0 °F 93% 29.82 in 2.5 mi SE 8.1 mph - N/A   Overcast
3:57 AM 33.8 °F 25.8 °F 32.0 °F 93% 29.81 in 2.5 mi SE 10.4 mph - N/A   Light Drizzle
4:17 AM 33.8 °F 27.0 °F 32.0 °F 93% 29.80 in 3.0 mi SE 8.1 mph - N/A   Light Drizzle
4:36 AM 35.6 °F 29.2 °F 33.8 °F 93% 29.80 in 2.5 mi SE 8.1 mph - 0.01 in Rain Light Rain
4:57 AM 35.6 °F 29.2 °F 33.8 °F 93% 29.79 in 3.0 mi SE 8.1 mph - N/A Rain Light Rain
5:17 AM 35.6 °F 29.9 °F 33.8 °F 93% 29.78 in 2.5 mi SE 6.9 mph - N/A   Light Drizzle
5:37 AM 35.6 °F 29.9 °F 33.8 °F 93% 29.78 in 2.5 mi SE 6.9 mph - N/A Rain Light Rain
5:56 AM 35.6 °F 29.9 °F 33.8 °F 93% 29.78 in 2.0 mi SE 6.9 mph - N/A Rain Light Rain
6:17 AM 35.6 °F 29.2 °F 33.8 °F 93% 29.77 in 2.0 mi SE 8.1 mph - N/A   Overcast
6:36 AM 35.6 °F 29.2 °F 33.8 °F 93% 29.76 in 1.5 mi SE 8.1 mph - N/A   Overcast
6:57 AM 35.6 °F 29.9 °F 33.8 °F 93% 29.75 in 1.8 mi SE 6.9 mph - N/A   Overcast
7:16 AM 35.6 °F 31.7 °F 33.8 °F 93% 29.75 in 1.8 mi ESE 4.6 mph - N/A   Overcast
7:37 AM 35.6 °F 29.9 °F 33.8 °F 93% 29.75 in 1.8 mi SE 6.9 mph - N/A Rain Light Rain
7:57 AM 35.6 °F 32.8 °F 33.8 °F 93% 29.75 in 1.2 mi SE 3.5 mph - 0.01 in Rain Heavy Rain
8:16 AM 35.6 °F 32.8 °F 33.8 °F 93% 29.75 in 1.2 mi East 3.5 mph - 0.04 in Rain Rain
8:37 AM 35.6 °F 31.7 °F 33.8 °F 93% 29.74 in 1.2 mi East 4.6 mph - 0.13 in Rain Rain
8:57 AM 35.6 °F 29.9 °F 33.8 °F 93% 29.72 in 1.2 mi East 6.9 mph - N/A Rain Rain
9:16 AM 35.6 °F 31.7 °F 33.8 °F 93% 29.72 in 1.8 mi East 4.6 mph - N/A Rain Light Rain
9:37 AM 35.6 °F 30.7 °F 33.8 °F 93% 29.72 in 1.5 mi ESE 5.8 mph - 0.04 in Rain Rain
9:57 AM 35.6 °F 30.7 °F 33.8 °F 93% 29.71 in 1.8 mi ESE 5.8 mph - 0.01 in Rain Rain
10:16 AM 35.6 °F 30.7 °F 33.8 °F 93% 29.70 in 2.5 mi ESE 5.8 mph - 0.03 in Rain Rain
10:37 AM 35.6 °F 31.7 °F 33.8 °F 93% 29.70 in 3.0 mi SE 4.6 mph - 0.04 in Rain Rain
10:56 AM 35.6 °F 29.2 °F 33.8 °F 93% 29.69 in 1.5 mi SE 8.1 mph - N/A Rain Rain
11:17 AM 35.6 °F 28.0 °F 33.8 °F 93% 29.68 in 1.2 mi SE 10.4 mph - 0.05 in Rain Heavy Rain
11:36 AM 35.6 °F 27.5 °F 33.8 °F 93% 29.68 in 1.5 mi SE 11.5 mph - 0.10 in Rain Rain
11:57 AM 35.6 °F 28.6 °F 33.8 °F 93% 29.67 in 4.0 mi SE 9.2 mph - N/A   Drizzle
12:17 PM 35.6 °F 28.6 °F 33.8 °F 93% 29.67 in 1.2 mi ESE 9.2 mph - 0.04 in Rain Rain
12:36 PM 35.6 °F 27.1 °F 33.8 °F 93% 29.65 in 2.0 mi ESE 12.7 mph - 0.07 in Rain Rain
12:57 PM 35.6 °F 29.2 °F 35.6 °F 100% 29.65 in 2.5 mi ESE 8.1 mph - N/A Rain Light Rain
1:17 PM 37.4 °F 31.4 °F 35.6 °F 93% 29.64 in 3.0 mi ESE 8.1 mph - 0.01 in   Overcast
1:36 PM 37.4 °F 32.1 °F 35.6 °F 93% 29.63 in 3.0 mi ESE 6.9 mph - 0.01 in   Overcast
1:57 PM 37.4 °F 34.9 °F 35.6 °F 93% 29.62 in 4.0 mi East 3.5 mph - N/A   Overcast
2:17 PM 37.4 °F - 35.6 °F 93% 29.63 in 5.0 mi Calm Calm - N/A   Overcast
2:36 PM 39.2 °F - 35.6 °F 87% 29.62 in 5.0 mi Calm Calm - N/A   Overcast
2:57 PM 39.2 °F - 35.6 °F 87% 29.63 in 5.0 mi Calm Calm - N/A   Overcast
3:17 PM 39.2 °F 35.0 °F 37.4 °F 93% 29.63 in 5.0 mi NNW 5.8 mph - N/A   Overcast
3:36 PM 37.4 °F 32.1 °F 35.6 °F 93% 29.64 in 4.0 mi North 6.9 mph - N/A   Overcast
3:57 PM 37.4 °F 30.8 °F 35.6 °F 93% 29.65 in 3.0 mi North 9.2 mph - N/A   Overcast
4:17 PM 35.6 °F 30.7 °F 33.8 °F 93% 29.66 in 7.0 mi North 5.8 mph - N/A   Overcast
4:36 PM 35.6 °F 28.6 °F 33.8 °F 93% 29.67 in 4.0 mi NNE 9.2 mph - N/A   Overcast
4:57 PM 33.8 °F 25.8 °F 32.0 °F 93% 29.67 in 3.0 mi North 10.4 mph 16.1 mph N/A   Overcast
5:17 PM 33.8 °F 24.8 °F 32.0 °F 93% 29.67 in 3.0 mi NNE 12.7 mph 23.0 mph N/A   Overcast
5:36 PM 33.8 °F 25.3 °F 32.0 °F 93% 29.68 in 5.0 mi North 11.5 mph 17.3 mph N/A Rain Light Rain
5:57 PM 33.8 °F 25.8 °F 32.0 °F 93% 29.72 in 7.0 mi North 10.4 mph 18.4 mph N/A Rain Light Rain
6:17 PM 33.8 °F 24.3 °F 32.0 °F 93% 29.71 in 7.0 mi North 13.8 mph 18.4 mph N/A Rain Rain
6:36 PM 33.8 °F 24.8 °F 32.0 °F 93% 29.71 in 10.0 mi North 12.7 mph 20.7 mph N/A   Overcast
6:57 PM 33.8 °F 25.3 °F 32.0 °F 93% 29.72 in 7.0 mi North 11.5 mph 23.0 mph N/A   Light Drizzle
7:17 PM 32.0 °F 22.5 °F 32.0 °F 100% 29.74 in 7.0 mi North 12.7 mph 20.7 mph N/A   Overcast
7:36 PM 32.0 °F 22.1 °F 30.2 °F 93% 29.75 in 10.0 mi North 13.8 mph 23.0 mph N/A   Overcast
7:57 PM 32.0 °F 24.8 °F 30.2 °F 93% 29.77 in 10.0 mi North 8.1 mph 17.3 mph N/A   Overcast
8:16 PM 32.0 °F 23.0 °F 30.2 °F 93% 29.78 in 10.0 mi North 11.5 mph 16.1 mph N/A   Overcast
8:37 PM 32.0 °F 22.5 °F 30.2 °F 93% 29.79 in 10.0 mi North 12.7 mph 20.7 mph N/A   Overcast
8:57 PM 32.0 °F 22.1 °F 30.2 °F 93% 29.79 in 10.0 mi North 13.8 mph 18.4 mph N/A   Overcast
9:16 PM 32.0 °F 22.5 °F 30.2 °F 93% 29.79 in 5.0 mi North 12.7 mph 20.7 mph N/A Snow Light Snow
9:37 PM 32.0 °F 21.2 °F 30.2 °F 93% 29.81 in 5.0 mi North 16.1 mph 24.2 mph N/A   Overcast
9:57 PM 32.0 °F 20.5 °F 30.2 °F 93% 29.80 in 7.0 mi North 18.4 mph 24.2 mph N/A   Overcast
10:16 PM 32.0 °F 20.5 °F 30.2 °F 93% 29.81 in 7.0 mi North 18.4 mph 27.6 mph N/A   Overcast
10:37 PM 32.0 °F 20.5 °F 30.2 °F 93% 29.80 in 7.0 mi North 18.4 mph 25.3 mph N/A   Overcast
10:57 PM 32.0 °F 20.8 °F 30.2 °F 93% 29.81 in 2.5 mi North 17.3 mph 28.8 mph N/A Snow Light Snow
11:16 PM 32.0 °F 20.8 °F 30.2 °F 93% 29.82 in 3.0 mi North 17.3 mph 27.6 mph N/A Snow Light Snow
11:37 PM 32.0 °F 21.2 °F 28.4 °F 87% 29.82 in 5.0 mi North 16.1 mph 27.6 mph N/A   Overcast
11:56 PM 32.0 °F 20.5 °F 28.4 °F 87% 29.82 in 7.0 mi North 18.4 mph 28.8 mph N/A   Overcast